Location: Berduj
(43.0019°N, 22.3781°E)
Time: 11:13:48
(UTC+00:00)

Lacrosse 5 rocket - Pass Details

Date: 19 October 2019
Orbit: 459 x 639 km, 57.0° (Epoch: 19 November)

Event Time Altitude Azimuth Distance (km) Brightness Sun altitude
Rises 16:05:50 0° 309° (NW) 2,542 5.4 -5.1°
Reaches altitude 10° 16:07:59 10° 304° (NW) 1,681 4.6 -5.5°
Maximum altitude 16:11:39 51° 228° (SW) 644 2.1 -6.1°
Drops below altitude 10° 16:15:30 10° 152° (SSE) 1,765 3.7 -6.8°
Sets 16:17:48 0° 147° (SSE) 2,685 4.6 -7.2°
